Regional Weather Roundup
Issued by NWS

Home | Current Version | Previous Version | Text Only | Print | Product List | Glossary On
Versions: 1 2 3 4 5 6 7 8 9 10 11 12 13 14 15 16 17 18 19 20 21 22 23 24 25 26 27 28 29 30 31 32 33 34 35 36 37 38 39 40 41 42 43 44 45 46 47 48 49 50
000
ASUS45 KTFX 060510
RWRMT
MONTANA REGIONAL WEATHER ROUNDUP
NATIONAL WEATHER SERVICE GREAT FALLS MT
1100 PM MDT SUN JUL 05 2015

NOTE: "FAIR" INDICATES FEW OR NO CLOUDS BELOW 12000 FEET WITH NO
SIGNIFICANT WEATHER AND/OR OBSTRUCTIONS TO VISIBILITY.

MTZ001>007-043-060600-
WEST OF THE DIVIDE

CITY           SKY/WX    TMP DP  RH WIND       PRES   REMARKS
KALISPELL      CLEAR     58  41  53 CALM      30.18S
MISSOULA       CLOUDY    64  44  48 E15G22    30.17R
BUTTE          CLOUDY    54  45  71 NW8       30.25R
MULLAN PASS    CLEAR     49  42  77 VRB3      30.21R
DEER LODGE       N/A     52  45  76 N9        30.29R
EUREKA           N/A     63  39  42 W6        30.16R
HAMILTON         N/A     63  48  59 N8        30.13R
LIBBY            N/A     61  43  51 CALM      30.17R
RONAN            N/A     60  50  69 CALM      30.19R
$$

MTZ008-052>055-060600-
SOUTHWEST MONTANA

CITY           SKY/WX    TMP DP  RH WIND       PRES   REMARKS
BOZEMAN        CLOUDY    56  50  80 W5        30.22R
DILLON         MOCLDY    53  49  86 NE14      30.19R
W YELLOWSTONE  LGT RAIN  50  50 100 SE5       30.25F
THREE FORKS      N/A     57  57 100 N7        30.20R
TWIN BRIDGES     N/A     55  45  69 N21       30.16R
$$

MTZ009-010-012-014-046-048-049-054-060600-
EAST SLOPES AND CENTRAL MONTANA

CITY           SKY/WX    TMP DP  RH WIND       PRES   REMARKS
CUT BANK       CLEAR     48  45  89 W6        30.27R
GREAT FALLS    CLOUDY    49  48  97 S3        30.26S
MALMSTROM AFB  MOCLDY    50  49  99 S6        30.27S
HELENA         CLOUDY    53  48  83 W8        30.25S
$$

MTZ011-013-016-021-045-047-050-051-060600-
NORTH CENTRAL MONTANA

CITY           SKY/WX    TMP DP  RH WIND       PRES   REMARKS
HAVRE          MOCLDY    56  53  90 MISG      30.20S
LEWISTOWN      CLOUDY    52  50  93 W5        30.26S FOG
CHINOOK          N/A     57  52  82 W6        30.19S
FORT BENTON      N/A     54  50  87 SW6       30.25S
$$

MTZ017>020-022>027-061-062-060600-
NORTHEAST MONTANA

CITY           SKY/WX    TMP DP  RH WIND       PRES   REMARKS
GLASGOW        CLOUDY    61  49  64 W6        30.13R
JORDAN           N/A     58  54  86 W8        30.17R
SIDNEY         MOCLDY    63  52  67 W9        30.09R
WOLF POINT     MOCLDY    61  51  70 NW5       30.11R
PLENTYWOOD       N/A     55  48  76 N6        30.09S
POPLAR           N/A     61  54  77 CALM      30.11R
$$

MTZ028>42-056>058-060600-
SOUTHCENTRAL AND SOUTHEAST MONTANA

CITY           SKY/WX    TMP DP  RH WIND       PRES   REMARKS
BAKER          CLOUDY    63  50  62 N12       30.12R
BILLINGS       CLOUDY    57  47  69 NE7       30.22S
LIVINGSTON     CLOUDY    55  50  83 E5        30.22R HAZE
MILES CITY     RAIN      58  55  90 NW13      30.15S
FORSYTH          N/A     57  55  94 NW3       30.18R
LAUREL           N/A     57  46  66 NE1       30.18S
ROUNDUP          N/A     54  47  77 MISG      30.12F
$$

REGIONAL REPORTS...DAKOTAS

CITY           SKY/WX    TMP DP  RH WIND       PRES   REMARKS
WILLISTON      MOCLDY    62  52  69 N5        30.08R
MINOT          MOCLDY    60  53  77 NW9       30.00R
DICKINSON      CLOUDY    60  51  72 N7        30.05R
BEACH          CLOUDY    59  54  82 NW7       30.11S
CROSBY         FAIR      54  54 100 NW7       30.08R
BISMARCK       CLOUDY    68  58  70 NW10      29.99R HAZE
GRAND FORKS    CLOUDY    63  60  90 NW3       29.89R FOG
FARGO          CLOUDY    69  62  78 N16G23    29.88R HAZE
BUFFALO SD       N/A     62  56  80 NW8       30.03S
RAPID CITY     CLOUDY    61  59  93 NW15      30.07S FOG
$$

REGIONAL REPORTS...WYOMING/IDAHO/WASHINGTON

CITY           SKY/WX    TMP DP  RH WIND       PRES   REMARKS
GILLETTE       CLOUDY    56  54  93 N6        30.17R FOG
SHERIDAN       RAIN      56  53  90 W7        30.21R FOG
BUFFALO WY     CLOUDY    53  52  96 NW10      30.23S FOG
CODY           CLOUDY    54  48  82 W6        30.24F
YELLOWSTONE LA   N/A     49  47  93 CALM      30.35R
IDAHO FALLS    CLOUDY    70  55  59 S12       30.05R
SALMON         MOCLDY    68  54  60 N3        30.01R
BOISE          MOCLDY    73  55  53 E7        29.97R
SPOKANE        PTCLDY    75  43  31 E13       29.99R
$$

REGIONAL REPORTS...ALBERTA

CITY           SKY/WX    TMP DP  RH WIND       PRES   REMARKS
EDMONTON       CLEAR     52  37  58 S3        30.16R
CALGARY        MOCLDY    54  43  66 SE6       30.24S
LETHBRIDGE     MOCLDY    54  50  87 SW5       30.24S
MEDICINE HAT   CLEAR     54  50  87 N5        30.20R
WATERTON GATE    N/A     45  43  93 CALM        N/A
CARDSTON         N/A     50  48  93 SW6         N/A
ONEFOUR          N/A     50  46  87 NW9         N/A
$$

REGIONAL REPORTS...SASKATCHEWAN

CITY           SKY/WX    TMP DP  RH WIND       PRES   REMARKS
SWIFT CURRENT  CLOUDY    55  48  76 NW5       30.15S
REGINA         MOCLDY    57  50  77 N9        30.10R
SASKATOON      MOCLDY    55  46  71 N5        30.15R
CYPRESS HILLS    N/A     48  45  87 NW1         N/A
VAL MARIE        N/A     57  50  77 NW3         N/A
ROCKGLEN         N/A     52  48  87 W5          N/A
ASSINIBOIA       N/A     50  45  81 SW7         N/A
$$


USA.gov is the U.S. government's official web portal to all federal, state and local government web resources and services.